CST,Max TemperatureF,Mean TemperatureF,Min TemperatureF,Max Dew PointF,MeanDew PointF,Min DewpointF,Max Humidity, Mean Humidity, Min Humidity, Max Sea Level PressureIn, Mean Sea Level PressureIn, Min Sea Level PressureIn, Max VisibilityMiles, Mean VisibilityMiles, Min VisibilityMiles, Max Wind SpeedMPH, Mean Wind SpeedMPH, Max Gust SpeedMPH,PrecipitationIn, CloudCover, Events, WindDirDegrees
2013-2-1,13,6,-2,11,-1,-8,88,76,65,30.33,30.25,30.13,10,9,1,22,15,29,0.00,2,Snow,248
2013-2-2,21,13,5,19,8,-1,93,81,70,30.12,30.04,29.98,10,8,1,20,10,24,0.00,6,Snow,294
2013-2-3,19,14,8,17,11,3,89,81,69,30.04,29.99,29.93,10,6,1,21,8,29,0.00,7,Snow,256
2013-2-4,23,15,7,20,14,0,90,84,73,29.98,29.90,29.84,10,8,1,16,8,,0.01,6,Snow,23
2013-2-5,28,17,6,25,16,-3,88,81,64,30.07,29.89,29.78,10,7,1,18,7,23,0.00,6,Snow,247
2013-2-6,35,23,11,30,21,9,89,83,74,30.20,30.13,30.07,10,8,7,22,8,28,0.00,2,,129
2013-2-7,32,29,25,30,29,23,92,91,87,30.07,29.96,29.85,7,2,0,20,9,25,0.60,7,Rain-Snow,111
2013-2-8,23,21,19,22,18,16,91,88,84,30.37,30.26,29.99,10,10,2,20,13,25,0.03,7,Snow,339
2013-2-9,29,25,21,26,22,19,93,86,82,30.37,30.24,30.04,10,9,7,21,9,25,0.00,6,,147
2013-2-10,41,34,27,39,32,24,93,89,74,30.04,29.71,29.47,10,6,1,25,17,38,0.25,7,Rain,155
2013-2-11,38,32,25,32,24,19,82,76,72,30.03,29.76,29.50,10,10,10,33,25,44,0.00,8,,259
2013-2-12,28,24,20,22,19,17,89,81,72,30.09,30.01,29.89,10,9,7,20,12,28,0.00,5,,254
2013-2-13,39,28,18,32,26,16,92,86,71,29.89,29.77,29.71,10,7,2,14,8,,0.00,2,,205
2013-2-14,37,34,30,31,28,23,92,81,67,29.97,29.77,29.62,10,10,5,26,13,34,0.00,7,,257
2013-2-15,30,24,16,26,14,7,83,65,48,30.17,30.12,29.97,10,10,7,17,11,24,0.00,3,Snow,313
2013-2-16,18,14,10,7,4,1,75,64,54,30.17,30.15,30.10,10,10,10,17,9,22,0.00,2,,317
2013-2-17,28,18,7,18,8,0,78,62,44,30.18,30.11,29.94,10,10,10,16,4,22,0.00,0,,146
2013-2-18,46,36,24,41,29,18,93,78,66,29.94,29.64,29.43,10,9,2,28,19,38,0.32,4,Rain-Snow,176
2013-2-19,23,15,7,20,7,1,86,78,71,30.17,29.89,29.59,10,7,1,33,25,39,0.27,6,Snow,277
2013-2-20,19,12,4,12,5,-2,83,74,68,30.35,30.30,30.19,10,10,10,21,12,25,0.00,0,,313
2013-2-21,26,19,12,23,17,8,89,84,79,30.36,30.21,29.94,10,9,0,24,8,31,0.01,7,Snow,51
2013-2-22,31,26,22,28,23,19,93,87,83,29.92,29.84,29.78,10,6,1,22,15,25,0.01,8,Snow-Thunderstorm,172
2013-2-23,25,22,19,22,17,14,88,81,71,29.95,29.91,29.88,10,9,2,18,13,24,0.00,6,Snow,248
2013-2-24,31,22,12,21,16,9,87,78,61,30.13,30.07,29.95,10,10,4,10,6,,0.00,0,,261
2013-2-25,38,28,19,28,23,16,87,77,57,30.14,30.08,29.94,10,9,5,13,5,18,0.00,0,,88
2013-2-26,33,32,30,29,28,26,91,84,73,29.93,29.64,29.53,10,7,0,29,18,34,0.02,5,Rain-Snow,44
2013-2-27,31,30,28,29,27,25,93,88,85,29.72,29.61,29.53,10,6,1,16,12,22,0.00,8,Rain-Snow,331
2013-2-28,32,28,25,28,26,19,93,83,73,30.07,29.92,29.73,10,9,2,21,14,25,0.00,8,Snow,349